GSAT0204 (GALILEO 8) (40545 NORAD) Tracking and Keplerian Element Data

This shows tracking and keplerian element data for the satellite.

Feedback or suggestion? Click here.




ElementValue
Catalog40545
NameGSAT0204 (GALILEO 8)
Epoch Orbit2374
Epoch Day34.28456529
Epoch Year2025
RAAN355.2
Inclination56.9169
Eccentricity0.0005051
Argument of Perigee275.1036
Mean Anonmoly84.8307
Mean Motion1.7047529
Decay Rate-8.3E-07
L11 40545U 15017B 25034.28456529 -.00000083 00000+0 00000+0 0 9997
L22 40545 56.9169 355.2000 0005051 275.1036 84.8307 1.70475290 23747



Live tracking and technical data element details for GSAT0204 (GALILEO 8) (NORAD 40545). GSAT0204 (GALILEO 8) can be tracked NOW for your location showing map with azimuth and elevation plus other details from your city location.







IsCatalogInMostPopularTable: catalog: 40545, numindb: 713
Update: records affected: 1



GetName: 40545 GSAT0204 (GALILEO 8)

Hit Count: updated at: Sat, 17 May 2025 06:50:44 GMT